Time,TemperatureF,DewpointF,PressureIn,WindDirection,WindDirectionDegrees,WindSpeedMPH,WindSpeedGustMPH,Humidity,HourlyPrecipIn,Conditions,Clouds,dailyrainin,SolarRadiationWatts/m^2,SoftwareType,DateUTC
2013-05-25 00:00:00,62.1,35.5,29.65,ESE,123,0.0,-999.0,26,-99.99,,,0.00,0.0,cwc,2013-05-25 06:00:00,
2013-05-25 00:05:00,61.6,35.7,29.65,ESE,123,0.0,-999.0,28,-99.99,,,0.00,0.0,cwc,2013-05-25 06:05:00,
2013-05-25 00:10:00,61.2,35.6,29.65,ESE,123,0.0,-999.0,29,-99.99,,,0.00,0.0,cwc,2013-05-25 06:10:00,
2013-05-25 00:15:00,60.9,36.4,29.65,ESE,123,0.0,-999.0,32,-99.99,,,0.00,0.0,cwc,2013-05-25 06:15:00,
2013-05-25 00:20:00,60.4,37.4,29.64,ESE,123,0.0,-999.0,36,-99.99,,,0.00,0.0,cwc,2013-05-25 06:20:00,
2013-05-25 00:25:00,60.1,36.7,29.64,ESE,123,0.0,-999.0,35,-99.99,,,0.00,0.0,cwc,2013-05-25 06:25:00,
2013-05-25 00:30:00,59.5,36.8,29.64,ESE,119,0.0,-999.0,37,-99.99,,,0.00,0.0,cwc,2013-05-25 06:30:00,
2013-05-25 00:40:00,58.7,36.4,29.64,ESE,119,0.0,-999.0,38,-99.99,,,0.00,0.0,cwc,2013-05-25 06:40:00,
2013-05-25 00:45:00,58.3,36.7,29.64,ESE,119,0.0,-999.0,40,-99.99,,,0.00,0.0,cwc,2013-05-25 06:45:00,
2013-05-25 00:50:00,58.3,36.7,29.66,ESE,119,0.0,-999.0,40,-99.99,,,0.00,0.0,cwc,2013-05-25 06:50:00,
2013-05-25 00:55:00,58.1,36.5,29.66,ESE,119,0.0,-999.0,40,-99.99,,,0.00,0.0,cwc,2013-05-25 06:55:00,
2013-05-25 01:00:00,58.1,36.1,29.66,ESE,119,0.0,-999.0,39,-99.99,,,0.00,0.0,cwc,2013-05-25 07:00:00,
2013-05-25 01:05:00,57.6,36.0,29.66,ESE,119,0.0,-999.0,40,-99.99,,,0.00,0.0,cwc,2013-05-25 07:05:00,
2013-05-25 01:10:00,57.6,35.6,29.66,ESE,119,0.0,-999.0,39,-99.99,,,0.00,0.0,cwc,2013-05-25 07:10:00,
2013-05-25 01:15:00,57.3,35.7,29.66,ESE,119,0.0,-999.0,40,-99.99,,,0.00,0.0,cwc,2013-05-25 07:15:00,
2013-05-25 01:20:00,57.0,36.1,29.65,ESE,119,0.0,-999.0,42,-99.99,,,0.00,0.0,cwc,2013-05-25 07:20:00,
2013-05-25 01:25:00,56.9,36.0,29.65,ESE,119,0.0,-999.0,42,-99.99,,,0.00,0.0,cwc,2013-05-25 07:25:00,
2013-05-25 01:30:00,56.9,37.1,29.65,ESE,119,0.0,-999.0,45,-99.99,,,0.00,0.0,cwc,2013-05-25 07:30:00,
2013-05-25 01:35:00,56.7,36.2,29.65,ESE,119,0.0,-999.0,43,-99.99,,,0.00,0.0,cwc,2013-05-25 07:35:00,
2013-05-25 01:40:00,56.6,35.4,29.65,ESE,119,0.0,-999.0,41,-99.99,,,0.00,0.0,cwc,2013-05-25 07:40:00,
2013-05-25 01:45:00,56.6,37.5,29.65,ESE,119,0.0,-999.0,47,-99.99,,,0.00,0.0,cwc,2013-05-25 07:45:00,
2013-05-25 01:50:00,56.2,36.4,29.65,ESE,119,0.0,-999.0,45,-99.99,,,0.00,0.0,cwc,2013-05-25 07:50:00,
2013-05-25 01:55:00,56.2,36.0,29.65,ESE,119,0.0,-999.0,44,-99.99,,,0.00,0.0,cwc,2013-05-25 07:55:00,
2013-05-25 02:00:00,56.0,36.2,29.65,ESE,119,0.0,-999.0,45,-99.99,,,0.00,0.0,cwc,2013-05-25 08:00:00,
2013-05-25 02:05:00,56.0,36.2,29.66,ESE,119,0.0,-999.0,45,-99.99,,,0.00,0.0,cwc,2013-05-25 08:05:00,
2013-05-25 02:10:00,56.2,37.5,29.66,ESE,119,0.0,-999.0,48,-99.99,,,0.00,0.0,cwc,2013-05-25 08:10:00,
2013-05-25 02:15:00,55.9,36.1,29.66,ESE,119,0.0,-999.0,45,-99.99,,,0.00,0.0,cwc,2013-05-25 08:15:00,
2013-05-25 02:20:00,55.9,36.1,29.64,ESE,119,0.0,-999.0,45,-99.99,,,0.00,0.0,cwc,2013-05-25 08:20:00,
2013-05-25 02:25:00,55.7,35.9,29.64,ESE,119,0.0,-999.0,45,-99.99,,,0.00,0.0,cwc,2013-05-25 08:25:00,
2013-05-25 02:30:00,55.6,35.4,29.64,ESE,119,0.0,-999.0,44,-99.99,,,0.00,0.0,cwc,2013-05-25 08:30:00,
2013-05-25 02:35:00,55.6,36.2,29.64,ESE,119,0.0,-999.0,46,-99.99,,,0.00,0.0,cwc,2013-05-25 08:35:00,
2013-05-25 02:40:00,55.6,36.9,29.64,ESE,119,0.0,-999.0,48,-99.99,,,0.00,0.0,cwc,2013-05-25 08:40:00,
2013-05-25 02:45:00,55.4,36.0,29.64,ESE,119,0.0,-999.0,46,-99.99,,,0.00,0.0,cwc,2013-05-25 08:45:00,
2013-05-25 02:50:00,55.1,35.7,29.66,ESE,119,0.0,-999.0,46,-99.99,,,0.00,0.0,cwc,2013-05-25 08:50:00,
2013-05-25 02:55:00,55.7,42.7,29.66,ESE,119,0.0,-999.0,64,-99.99,,,0.00,0.0,cwc,2013-05-25 08:55:00,
2013-05-25 03:00:00,55.0,36.3,29.66,ESE,119,0.0,-999.0,48,-99.99,,,0.00,0.0,cwc,2013-05-25 09:00:00,
2013-05-25 03:05:00,57.8,40.9,29.67,ESE,119,0.0,-999.0,53,-99.99,,,0.00,0.0,cwc,2013-05-25 09:05:00,
2013-05-25 03:10:00,55.0,35.6,29.67,ESE,119,0.0,-999.0,46,-99.99,,,0.00,0.0,cwc,2013-05-25 09:10:00,
2013-05-25 03:15:00,54.8,35.4,29.67,ESE,119,0.0,-999.0,46,-99.99,,,0.00,0.0,cwc,2013-05-25 09:15:00,
2013-05-25 03:20:00,55.3,37.7,29.68,ESE,119,0.0,-999.0,51,-99.99,,,0.00,0.0,cwc,2013-05-25 09:20:00,
2013-05-25 03:25:00,54.7,36.7,29.68,ESE,119,0.0,-999.0,50,-99.99,,,0.00,0.0,cwc,2013-05-25 09:25:00,
2013-05-25 03:30:00,55.0,40.2,29.68,ESE,119,0.0,-999.0,59,-99.99,,,0.00,0.0,cwc,2013-05-25 09:30:00,
2013-05-25 03:35:00,54.4,36.8,29.67,ESE,119,0.0,-999.0,51,-99.99,,,0.00,0.0,cwc,2013-05-25 09:35:00,
2013-05-25 03:40:00,54.7,38.5,29.67,ESE,119,0.0,-999.0,55,-99.99,,,0.00,0.0,cwc,2013-05-25 09:40:00,
2013-05-25 03:45:00,54.2,37.3,29.67,ESE,119,0.0,-999.0,53,-99.99,,,0.00,0.0,cwc,2013-05-25 09:45:00,
2013-05-25 03:50:00,53.9,35.5,29.68,ESE,119,0.0,-999.0,49,-99.99,,,0.00,0.0,cwc,2013-05-25 09:50:00,
2013-05-25 03:55:00,54.8,40.4,29.68,SSE,151,0.0,-999.0,60,-99.99,,,0.00,0.0,cwc,2013-05-25 09:55:00,
2013-05-25 04:00:00,54.2,37.6,29.68,SSE,151,0.0,-999.0,54,-99.99,,,0.00,0.0,cwc,2013-05-25 10:00:00,
2013-05-25 04:05:00,54.2,39.4,29.68,SSE,151,0.0,-999.0,59,-99.99,,,0.00,0.0,cwc,2013-05-25 10:05:00,
2013-05-25 04:10:00,54.1,37.9,29.68,SSE,151,0.0,-999.0,55,-99.99,,,0.00,0.0,cwc,2013-05-25 10:10:00,
2013-05-25 04:15:00,53.6,36.3,29.68,SSE,151,0.0,-999.0,52,-99.99,,,0.00,0.0,cwc,2013-05-25 10:15:00,
2013-05-25 04:20:00,54.5,37.2,29.70,SSE,151,0.0,-999.0,52,-99.99,,,0.00,0.0,cwc,2013-05-25 10:20:00,
2013-05-25 04:25:00,54.5,40.5,29.70,SSE,151,0.0,-999.0,61,-99.99,,,0.00,0.0,cwc,2013-05-25 10:25:00,
2013-05-25 04:30:00,53.6,37.4,29.70,SSE,151,0.0,-999.0,55,-99.99,,,0.00,0.0,cwc,2013-05-25 10:30:00,
2013-05-25 04:35:00,53.5,36.9,29.70,SSE,151,0.0,-999.0,54,-99.99,,,0.00,0.0,cwc,2013-05-25 10:35:00,
2013-05-25 04:40:00,54.1,40.8,29.70,SSE,151,0.0,-999.0,63,-99.99,,,0.00,0.0,cwc,2013-05-25 10:40:00,
2013-05-25 04:45:00,54.1,42.6,29.70,SSE,151,0.0,-999.0,68,-99.99,,,0.00,0.0,cwc,2013-05-25 10:45:00,
2013-05-25 04:55:00,53.9,39.5,29.71,SSE,151,0.0,-999.0,60,-99.99,,,0.00,0.0,cwc,2013-05-25 10:55:00,
2013-05-25 05:00:00,54.2,41.6,29.71,SSE,151,0.0,-999.0,65,-99.99,,,0.00,0.0,cwc,2013-05-25 11:00:00,
2013-05-25 05:05:00,54.5,43.0,29.71,SSE,151,0.0,-999.0,68,-99.99,,,0.00,0.0,cwc,2013-05-25 11:05:00,
2013-05-25 05:10:00,53.2,36.6,29.71,SSE,151,0.0,-999.0,54,-99.99,,,0.00,0.0,cwc,2013-05-25 11:10:00,
2013-05-25 05:15:00,52.6,36.0,29.71,SSE,151,0.0,-999.0,54,-99.99,,,0.00,0.0,cwc,2013-05-25 11:15:00,
2013-05-25 05:20:00,52.0,35.1,29.73,SSE,151,0.0,-999.0,53,-99.99,,,0.00,0.0,cwc,2013-05-25 11:20:00,
2013-05-25 05:25:00,52.8,42.0,29.73,SSE,151,0.0,-999.0,70,-99.99,,,0.00,0.0,cwc,2013-05-25 11:25:00,
2013-05-25 05:30:00,52.0,37.2,29.73,SSE,151,0.0,-999.0,59,-99.99,,,0.00,0.0,cwc,2013-05-25 11:30:00,
2013-05-25 05:35:00,52.8,43.1,29.73,SSE,151,0.0,-999.0,73,-99.99,,,0.00,0.0,cwc,2013-05-25 11:35:00,
2013-05-25 05:40:00,53.6,42.4,29.73,SSE,151,0.0,-999.0,69,-99.99,,,0.00,0.0,cwc,2013-05-25 11:40:00,
2013-05-25 05:45:00,51.9,37.1,29.73,SSE,151,0.0,-999.0,59,-99.99,,,0.00,0.0,cwc,2013-05-25 11:45:00,
2013-05-25 05:50:00,52.8,42.0,29.74,SSE,151,0.0,-999.0,70,-99.99,,,0.00,0.0,cwc,2013-05-25 11:50:00,
2013-05-25 05:55:00,52.8,42.0,29.74,SSE,151,0.0,-999.0,70,-99.99,,,0.00,0.0,cwc,2013-05-25 11:55:00,
2013-05-25 06:00:00,51.7,37.7,29.74,SSE,151,0.0,-999.0,61,-99.99,,,0.00,0.0,cwc,2013-05-25 12:00:00,
2013-05-25 06:05:00,52.3,38.3,29.74,SSE,151,0.0,-999.0,61,-99.99,,,0.00,0.0,cwc,2013-05-25 12:05:00,
2013-05-25 06:10:00,51.4,36.3,29.74,SSE,151,0.0,-999.0,58,-99.99,,,0.00,0.0,cwc,2013-05-25 12:10:00,
2013-05-25 06:15:00,52.6,38.9,29.74,SSE,151,0.0,-999.0,62,-99.99,,,0.00,0.0,cwc,2013-05-25 12:15:00,
2013-05-25 06:20:00,52.0,36.9,29.78,SSE,151,0.0,-999.0,58,-99.99,,,0.00,0.0,cwc,2013-05-25 12:20:00,
2013-05-25 06:25:00,53.8,44.1,29.78,SSE,151,0.0,-999.0,73,-99.99,,,0.00,0.0,cwc,2013-05-25 12:25:00,
2013-05-25 06:30:00,55.1,45.7,29.78,SSE,151,0.0,-999.0,74,-99.99,,,0.00,0.0,cwc,2013-05-25 12:30:00,
2013-05-25 06:35:00,56.6,55.2,29.75,SSE,151,0.0,-999.0,96,-99.99,,,0.00,0.0,cwc,2013-05-25 12:35:00,
2013-05-25 06:40:00,55.4,55.4,29.75,SSE,151,0.0,-999.0,100,-99.99,,,0.00,0.0,cwc,2013-05-25 12:40:00,
2013-05-25 06:45:00,55.0,46.0,29.75,SSE,151,0.0,-999.0,75,-99.99,,,0.00,0.0,cwc,2013-05-25 12:45:00,
2013-05-25 06:50:00,56.7,48.8,29.75,SSE,151,0.0,-999.0,78,-99.99,,,0.00,0.0,cwc,2013-05-25 12:50:00,
2013-05-25 06:55:00,55.6,48.4,29.75,SSE,151,0.0,-999.0,80,-99.99,,,0.00,0.0,cwc,2013-05-25 12:55:00,
2013-05-25 07:00:00,56.2,45.8,29.75,SSE,151,0.0,-999.0,71,-99.99,,,0.00,0.0,cwc,2013-05-25 13:00:00,
2013-05-25 07:05:00,57.3,46.9,29.75,SSE,151,0.0,-999.0,71,-99.99,,,0.00,0.0,cwc,2013-05-25 13:05:00,
2013-05-25 07:10:00,58.1,47.3,29.75,SSE,151,0.0,-999.0,70,-99.99,,,0.00,0.0,cwc,2013-05-25 13:10:00,
2013-05-25 07:15:00,58.4,44.7,29.75,SSE,151,0.0,-999.0,62,-99.99,,,0.00,0.0,cwc,2013-05-25 13:15:00,
2013-05-25 07:20:00,59.5,45.5,29.75,SSE,151,0.0,-999.0,61,-99.99,,,0.00,0.0,cwc,2013-05-25 13:20:00,
2013-05-25 07:25:00,60.4,41.0,29.75,SSE,151,0.0,-999.0,46,-99.99,,,0.00,0.0,cwc,2013-05-25 13:25:00,
2013-05-25 07:30:00,60.7,41.3,29.75,SSE,151,0.0,-999.0,46,-99.99,,,0.00,0.0,cwc,2013-05-25 13:30:00,
2013-05-25 07:35:00,62.0,41.8,29.73,SSE,151,0.0,-999.0,44,-99.99,,,0.00,0.0,cwc,2013-05-25 13:35:00,
2013-05-25 07:40:00,62.1,41.2,29.73,SSE,151,0.0,-999.0,42,-99.99,,,0.00,0.0,cwc,2013-05-25 13:40:00,
2013-05-25 07:45:00,63.2,41.6,29.73,SSE,151,0.0,-999.0,40,-99.99,,,0.00,0.0,cwc,2013-05-25 13:45:00,
2013-05-25 07:50:00,63.2,41.2,29.72,SSE,151,0.0,-999.0,39,-99.99,,,0.00,0.0,cwc,2013-05-25 13:50:00,
2013-05-25 07:55:00,63.9,41.6,29.72,SSE,151,0.0,-999.0,38,-99.99,,,0.00,0.0,cwc,2013-05-25 13:55:00,
2013-05-25 08:00:00,64.3,41.3,29.72,SSE,151,0.0,-999.0,36,-99.99,,,0.00,0.0,cwc,2013-05-25 14:00:00,
2013-05-25 08:05:00,65.5,42.1,29.72,SSE,151,0.0,-999.0,35,-99.99,,,0.00,0.0,cwc,2013-05-25 14:05:00,
2013-05-25 08:10:00,66.0,42.2,29.72,SSE,151,0.0,-999.0,34,-99.99,,,0.00,0.0,cwc,2013-05-25 14:10:00,
2013-05-25 08:15:00,66.8,42.7,29.72,SSE,151,0.0,-999.0,33,-99.99,,,0.00,0.0,cwc,2013-05-25 14:15:00,
2013-05-25 08:20:00,66.8,42.3,29.72,SSE,151,0.0,-999.0,32,-99.99,,,0.00,0.0,cwc,2013-05-25 14:20:00,
2013-05-25 08:25:00,67.1,42.6,29.72,SE,128,0.0,-999.0,32,-99.99,,,0.00,0.0,cwc,2013-05-25 14:25:00,
2013-05-25 08:30:00,67.4,42.9,29.72,SE,128,0.0,-999.0,32,-99.99,,,0.00,0.0,cwc,2013-05-25 14:30:00,
2013-05-25 08:35:00,68.3,43.5,29.71,SE,128,0.0,-999.0,31,-99.99,,,0.00,0.0,cwc,2013-05-25 14:35:00,
2013-05-25 08:40:00,69.1,44.3,29.71,East,92,0.0,-999.0,31,-99.99,,,0.00,0.0,cwc,2013-05-25 14:40:00,
2013-05-25 08:45:00,69.4,44.6,29.71,East,92,0.0,-999.0,31,-99.99,,,0.00,0.0,cwc,2013-05-25 14:45:00,
2013-05-25 08:50:00,69.9,45.1,29.71,East,92,0.0,-999.0,31,-99.99,,,0.00,0.0,cwc,2013-05-25 14:50:00,
2013-05-25 08:55:00,70.9,45.7,29.71,East,92,1.0,-999.0,30,-99.99,,,0.00,0.0,cwc,2013-05-25 14:55:00,
2013-05-25 09:00:00,71.1,45.9,29.71,NW,304,0.0,-999.0,30,-99.99,,,0.00,0.0,cwc,2013-05-25 15:00:00,
2013-05-25 09:05:00,70.9,45.7,29.69,North,0,1.0,-999.0,30,-99.99,,,0.00,0.0,cwc,2013-05-25 15:05:00,
2013-05-25 09:10:00,71.5,46.3,29.69,NNW,336,2.0,-999.0,30,-99.99,,,0.00,0.0,cwc,2013-05-25 15:10:00,
2013-05-25 09:15:00,73.0,47.8,29.69,NNW,336,0.0,-999.0,30,-99.99,,,0.00,0.0,cwc,2013-05-25 15:15:00,
2013-05-25 09:20:00,73.3,47.7,29.73,SSW,209,0.0,-999.0,29,-99.99,,,0.00,0.0,cwc,2013-05-25 15:20:00,
2013-05-25 09:25:00,73.3,47.4,29.73,SW,227,0.0,-999.0,28,-99.99,,,0.00,0.0,cwc,2013-05-25 15:25:00,
2013-05-25 09:30:00,73.7,47.8,29.73,SW,229,8.0,-999.0,28,-99.99,,,0.00,0.0,cwc,2013-05-25 15:30:00,
2013-05-25 09:35:00,74.0,48.1,29.72,WSW,237,0.0,-999.0,28,-99.99,,,0.00,0.0,cwc,2013-05-25 15:35:00,
2013-05-25 09:40:00,74.6,48.3,29.72,SW,219,2.0,-999.0,27,-99.99,,,0.00,0.0,cwc,2013-05-25 15:40:00,
2013-05-25 09:45:00,75.1,48.8,29.72,WNW,301,1.0,-999.0,27,-99.99,,,0.00,0.0,cwc,2013-05-25 15:45:00,
2013-05-25 09:50:00,75.3,49.4,29.72,WNW,295,2.0,-999.0,28,-99.99,,,0.00,0.0,cwc,2013-05-25 15:50:00,
2013-05-25 09:55:00,75.4,48.0,29.72,SW,233,4.0,-999.0,24,-99.99,,,0.00,0.0,cwc,2013-05-25 15:55:00,
2013-05-25 10:00:00,75.6,48.6,29.72,SW,233,2.0,-999.0,25,-99.99,,,0.00,0.0,cwc,2013-05-25 16:00:00,
2013-05-25 10:05:00,75.8,48.8,29.70,WNW,301,2.0,-999.0,25,-99.99,,,0.00,0.0,cwc,2013-05-25 16:05:00,
2013-05-25 10:10:00,75.8,48.8,29.70,SW,236,2.0,-999.0,25,-99.99,,,0.00,0.0,cwc,2013-05-25 16:10:00,
2013-05-25 10:15:00,76.3,49.3,29.70,West,281,4.0,-999.0,25,-99.99,,,0.00,0.0,cwc,2013-05-25 16:15:00,
2013-05-25 10:20:00,76.3,49.3,29.70,SW,234,4.0,-999.0,25,-99.99,,,0.00,0.0,cwc,2013-05-25 16:20:00,
2013-05-25 10:25:00,76.5,48.1,29.70,SW,232,7.0,-999.0,21,-99.99,,,0.00,0.0,cwc,2013-05-25 16:25:00,
2013-05-25 10:30:00,77.4,48.2,29.70,WNW,295,6.0,-999.0,19,-99.99,,,0.00,0.0,cwc,2013-05-25 16:30:00,
2013-05-25 10:35:00,78.1,49.7,29.68,WNW,282,1.0,-999.0,21,-99.99,,,0.00,0.0,cwc,2013-05-25 16:35:00,
2013-05-25 10:40:00,78.3,47.7,29.68,WNW,291,1.0,-999.0,15,-99.99,,,0.00,0.0,cwc,2013-05-25 16:40:00,
2013-05-25 10:45:00,78.3,47.7,29.68,SW,227,8.0,-999.0,15,-99.99,,,0.00,0.0,cwc,2013-05-25 16:45:00,
2013-05-25 10:50:00,79.2,49.0,29.69,SSW,213,4.0,-999.0,16,-99.99,,,0.00,0.0,cwc,2013-05-25 16:50:00,
2013-05-25 10:55:00,80.5,49.9,29.69,WSW,241,0.0,-999.0,15,-99.99,,,0.00,0.0,cwc,2013-05-25 16:55:00,
2013-05-25 11:00:00,79.9,50.4,29.69,South,182,0.0,-999.0,18,-99.99,,,0.00,0.0,cwc,2013-05-25 17:00:00,
2013-05-25 11:05:00,79.6,50.1,29.67,SW,229,0.0,-999.0,18,-99.99,,,0.00,0.0,cwc,2013-05-25 17:05:00,
2013-05-25 11:10:00,79.8,50.3,29.67,WNW,284,2.0,-999.0,18,-99.99,,,0.00,0.0,cwc,2013-05-25 17:10:00,
2013-05-25 11:15:00,79.8,49.9,29.67,WSW,240,2.0,-999.0,17,-99.99,,,0.00,0.0,cwc,2013-05-25 17:15:00,
2013-05-25 11:20:00,80.9,50.7,29.69,SW,233,6.0,-999.0,16,-99.99,,,0.00,0.0,cwc,2013-05-25 17:20:00,
2013-05-25 11:25:00,80.5,50.3,29.69,WSW,248,4.0,-999.0,16,-99.99,,,0.00,0.0,cwc,2013-05-25 17:25:00,
2013-05-25 11:30:00,80.3,50.1,29.69,SSE,151,9.0,-999.0,16,-99.99,,,0.00,0.0,cwc,2013-05-25 17:30:00,
2013-05-25 11:35:00,80.5,50.3,29.68,SW,227,11.0,-999.0,16,-99.99,,,0.00,0.0,cwc,2013-05-25 17:35:00,
2013-05-25 11:40:00,80.5,49.9,29.68,SSW,213,2.0,-999.0,15,-99.99,,,0.00,0.0,cwc,2013-05-25 17:40:00,
2013-05-25 11:45:00,81.6,50.6,29.68,ESE,103,0.0,-999.0,14,-99.99,,,0.00,0.0,cwc,2013-05-25 17:45:00,
2013-05-25 11:50:00,81.6,49.9,29.66,SW,234,15.0,-999.0,12,-99.99,,,0.00,0.0,cwc,2013-05-25 17:50:00,
2013-05-25 11:55:00,81.8,50.5,29.66,WSW,244,14.0,-999.0,13,-99.99,,,0.00,0.0,cwc,2013-05-25 17:55:00,
2013-05-25 12:00:00,81.4,50.4,29.66,SW,222,0.0,-999.0,14,-99.99,,,0.00,0.0,cwc,2013-05-25 18:00:00,
2013-05-25 12:05:00,82.4,51.1,29.66,SSW,193,9.0,-999.0,13,-99.99,,,0.00,0.0,cwc,2013-05-25 18:05:00,
2013-05-25 12:10:00,82.2,50.5,29.66,SW,233,18.0,-999.0,12,-99.99,,,0.00,0.0,cwc,2013-05-25 18:10:00,
2013-05-25 12:15:00,81.8,50.1,29.66,South,181,8.0,-999.0,12,-99.99,,,0.00,0.0,cwc,2013-05-25 18:15:00,
2013-05-25 12:20:00,82.8,50.8,29.68,West,265,4.0,-999.0,11,-99.99,,,0.00,0.0,cwc,2013-05-25 18:20:00,
2013-05-25 12:25:00,83.0,51.3,29.68,NW,315,4.0,-999.0,12,-99.99,,,0.00,0.0,cwc,2013-05-25 18:25:00,
2013-05-25 12:30:00,83.6,51.9,29.68,NW,306,2.0,-999.0,12,-99.99,,,0.00,0.0,cwc,2013-05-25 18:30:00,
2013-05-25 12:35:00,83.2,51.2,29.66,SSW,195,11.0,-999.0,11,-99.99,,,0.00,0.0,cwc,2013-05-25 18:35:00,
2013-05-25 12:40:00,83.4,51.4,29.66,SW,219,9.0,-999.0,11,-99.99,,,0.00,0.0,cwc,2013-05-25 18:40:00,
2013-05-25 12:45:00,84.0,52.0,29.66,SSE,154,20.0,-999.0,11,-99.99,,,0.00,0.0,cwc,2013-05-25 18:45:00,
2013-05-25 12:50:00,83.2,51.2,29.66,WSW,241,8.0,-999.0,11,-99.99,,,0.00,0.0,cwc,2013-05-25 18:50:00,
2013-05-25 12:55:00,83.2,50.8,29.66,SSE,161,13.0,-999.0,10,-99.99,,,0.00,0.0,cwc,2013-05-25 18:55:00,
2013-05-25 13:00:00,84.0,51.6,29.66,SW,216,10.0,-999.0,10,-99.99,,,0.00,0.0,cwc,2013-05-25 19:00:00,
2013-05-25 13:05:00,82.6,50.2,29.65,SSE,168,17.0,-999.0,10,-99.99,,,0.00,0.0,cwc,2013-05-25 19:05:00,
2013-05-25 13:10:00,82.8,50.4,29.65,SSW,205,15.0,-999.0,10,-99.99,,,0.00,0.0,cwc,2013-05-25 19:10:00,
2013-05-25 13:15:00,83.4,51.0,29.65,South,174,16.0,-999.0,10,-99.99,,,0.00,0.0,cwc,2013-05-25 19:15:00,
2013-05-25 13:20:00,83.4,50.6,29.65,South,188,30.0,-999.0,9,-99.99,,,0.00,0.0,cwc,2013-05-25 19:20:00,
2013-05-25 13:25:00,83.6,50.5,29.65,South,189,10.0,-999.0,8,-99.99,,,0.00,0.0,cwc,2013-05-25 19:25:00,
2013-05-25 13:30:00,84.0,51.2,29.65,South,175,16.0,-999.0,9,-99.99,,,0.00,0.0,cwc,2013-05-25 19:30:00,
2013-05-25 13:35:00,84.0,50.9,29.64,SSE,154,13.0,-999.0,8,-99.99,,,0.00,0.0,cwc,2013-05-25 19:35:00,
2013-05-25 13:40:00,83.6,50.5,29.64,SE,145,13.0,-999.0,8,-99.99,,,0.00,0.0,cwc,2013-05-25 19:40:00,
2013-05-25 13:45:00,84.9,51.8,29.64,WSW,237,13.0,-999.0,8,-99.99,,,0.00,0.0,cwc,2013-05-25 19:45:00,
2013-05-25 13:50:00,85.1,52.0,29.63,SSW,210,13.0,-999.0,8,-99.99,,,0.00,0.0,cwc,2013-05-25 19:50:00,
2013-05-25 13:55:00,84.7,51.6,29.63,South,179,4.0,-999.0,8,-99.99,,,0.00,0.0,cwc,2013-05-25 19:55:00,
2013-05-25 14:00:00,83.6,50.1,29.63,SSW,199,22.0,-999.0,7,-99.99,,,0.00,0.0,cwc,2013-05-25 20:00:00,
2013-05-25 14:05:00,83.6,50.1,29.64,South,174,22.0,-999.0,7,-99.99,,,0.00,0.0,cwc,2013-05-25 20:05:00,
2013-05-25 14:10:00,83.8,50.3,29.64,SSW,209,10.0,-999.0,7,-99.99,,,0.00,0.0,cwc,2013-05-25 20:10:00,
2013-05-25 14:15:00,83.4,49.9,29.64,ESE,123,20.0,-999.0,7,-99.99,,,0.00,0.0,cwc,2013-05-25 20:15:00,
2013-05-25 14:20:00,84.7,51.2,29.64,South,169,18.0,-999.0,7,-99.99,,,0.00,0.0,cwc,2013-05-25 20:20:00,
2013-05-25 14:25:00,84.5,51.0,29.64,South,178,17.0,-999.0,7,-99.99,,,0.00,0.0,cwc,2013-05-25 20:25:00,
2013-05-25 14:30:00,84.5,51.0,29.64,SSW,192,15.0,-999.0,7,-99.99,,,0.00,0.0,cwc,2013-05-25 20:30:00,
2013-05-25 14:35:00,84.5,50.7,29.64,SSE,164,13.0,-999.0,6,-99.99,,,0.00,0.0,cwc,2013-05-25 20:35:00,
2013-05-25 14:40:00,85.9,52.8,29.64,SW,230,13.0,-999.0,8,-99.99,,,0.00,0.0,cwc,2013-05-25 20:40:00,
2013-05-25 14:45:00,85.5,51.7,29.64,SSE,168,8.0,-999.0,6,-99.99,,,0.00,0.0,cwc,2013-05-25 20:45:00,
2013-05-25 14:50:00,84.5,51.0,29.62,ESE,120,8.0,-999.0,7,-99.99,,,0.00,0.0,cwc,2013-05-25 20:50:00,
2013-05-25 14:55:00,84.3,50.8,29.62,SSE,165,15.0,-999.0,7,-99.99,,,0.00,0.0,cwc,2013-05-25 20:55:00,
2013-05-25 15:00:00,84.7,51.2,29.62,South,184,14.0,-999.0,7,-99.99,,,0.00,0.0,cwc,2013-05-25 21:00:00,
2013-05-25 15:05:00,84.5,51.4,29.62,SSE,150,18.0,-999.0,8,-99.99,,,0.00,0.0,cwc,2013-05-25 21:05:00,
2013-05-25 15:10:00,85.1,51.6,29.62,SSE,161,8.0,-999.0,7,-99.99,,,0.00,0.0,cwc,2013-05-25 21:10:00,
2013-05-25 15:15:00,84.9,51.4,29.62,SSE,155,9.0,-999.0,7,-99.99,,,0.00,0.0,cwc,2013-05-25 21:15:00,
2013-05-25 15:20:00,85.3,51.8,29.62,SW,216,2.0,-999.0,7,-99.99,,,0.00,0.0,cwc,2013-05-25 21:20:00,
2013-05-25 15:25:00,84.9,51.8,29.62,South,176,15.0,-999.0,8,-99.99,,,0.00,0.0,cwc,2013-05-25 21:25:00,
2013-05-25 15:30:00,84.7,51.6,29.62,SSE,157,15.0,-999.0,8,-99.99,,,0.00,0.0,cwc,2013-05-25 21:30:00,
2013-05-25 15:35:00,84.5,51.0,29.61,South,175,11.0,-999.0,7,-99.99,,,0.00,0.0,cwc,2013-05-25 21:35:00,
2013-05-25 15:40:00,85.7,52.6,29.61,South,184,14.0,-999.0,8,-99.99,,,0.00,0.0,cwc,2013-05-25 21:40:00,
2013-05-25 15:45:00,84.7,51.6,29.61,ESE,110,13.0,-999.0,8,-99.99,,,0.00,0.0,cwc,2013-05-25 21:45:00,
2013-05-25 15:50:00,84.3,50.8,29.60,SSW,195,11.0,-999.0,7,-99.99,,,0.00,0.0,cwc,2013-05-25 21:50:00,
2013-05-25 15:55:00,85.3,52.2,29.60,SSW,195,14.0,-999.0,8,-99.99,,,0.00,0.0,cwc,2013-05-25 21:55:00,
2013-05-25 16:00:00,84.7,51.6,29.60,SSE,152,17.0,-999.0,8,-99.99,,,0.00,0.0,cwc,2013-05-25 22:00:00,
2013-05-25 16:05:00,86.3,53.2,29.59,SSW,193,0.0,-999.0,8,-99.99,,,0.00,0.0,cwc,2013-05-25 22:05:00,
2013-05-25 16:10:00,85.1,52.0,29.59,South,174,15.0,-999.0,8,-99.99,,,0.00,0.0,cwc,2013-05-25 22:10:00,
2013-05-25 16:15:00,85.1,52.0,29.59,SSE,151,8.0,-999.0,8,-99.99,,,0.00,0.0,cwc,2013-05-25 22:15:00,
2013-05-25 16:20:00,85.7,52.6,29.59,South,186,15.0,-999.0,8,-99.99,,,0.00,0.0,cwc,2013-05-25 22:20:00,
2013-05-25 16:25:00,85.7,52.2,29.59,South,188,4.0,-999.0,7,-99.99,,,0.00,0.0,cwc,2013-05-25 22:25:00,
2013-05-25 16:30:00,85.9,52.4,29.59,SW,223,17.0,-999.0,7,-99.99,,,0.00,0.0,cwc,2013-05-25 22:30:00,
2013-05-25 16:35:00,86.1,53.0,29.58,South,184,14.0,-999.0,8,-99.99,,,0.00,0.0,cwc,2013-05-25 22:35:00,
2013-05-25 16:40:00,85.9,52.4,29.58,South,169,14.0,-999.0,7,-99.99,,,0.00,0.0,cwc,2013-05-25 22:40:00,
2013-05-25 16:45:00,85.7,52.2,29.58,SW,220,13.0,-999.0,7,-99.99,,,0.00,0.0,cwc,2013-05-25 22:45:00,
2013-05-25 16:50:00,85.9,52.4,29.58,SSE,151,14.0,-999.0,7,-99.99,,,0.00,0.0,cwc,2013-05-25 22:50:00,
2013-05-25 16:55:00,85.3,51.8,29.58,SW,217,9.0,-999.0,7,-99.99,,,0.00,0.0,cwc,2013-05-25 22:55:00,
2013-05-25 17:00:00,85.3,51.8,29.58,SSE,158,8.0,-999.0,7,-99.99,,,0.00,0.0,cwc,2013-05-25 23:00:00,
2013-05-25 17:05:00,85.7,52.2,29.57,South,178,15.0,-999.0,7,-99.99,,,0.00,0.0,cwc,2013-05-25 23:05:00,
2013-05-25 17:10:00,85.9,52.1,29.57,SW,236,13.0,-999.0,6,-99.99,,,0.00,0.0,cwc,2013-05-25 23:10:00,
2013-05-25 17:15:00,85.7,52.2,29.57,SW,226,2.0,-999.0,7,-99.99,,,0.00,0.0,cwc,2013-05-25 23:15:00,
2013-05-25 17:20:00,84.9,51.4,29.58,WSW,243,0.0,-999.0,7,-99.99,,,0.00,0.0,cwc,2013-05-25 23:20:00,
2013-05-25 17:25:00,84.7,51.2,29.58,WNW,301,0.0,-999.0,7,-99.99,,,0.00,0.0,cwc,2013-05-25 23:25:00,
2013-05-25 17:30:00,84.0,50.5,29.58,South,176,7.0,-999.0,7,-99.99,,,0.00,0.0,cwc,2013-05-25 23:30:00,
2013-05-25 17:35:00,84.0,50.2,29.58,South,186,2.0,-999.0,6,-99.99,,,0.00,0.0,cwc,2013-05-25 23:35:00,
2013-05-25 17:40:00,84.1,50.3,29.58,SSE,165,8.0,-999.0,6,-99.99,,,0.00,0.0,cwc,2013-05-25 23:40:00,
2013-05-25 17:45:00,84.5,51.0,29.58,WSW,250,16.0,-999.0,7,-99.99,,,0.00,0.0,cwc,2013-05-25 23:45:00,
2013-05-25 17:50:00,85.1,51.6,29.57,SW,219,7.0,-999.0,7,-99.99,,,0.00,0.0,cwc,2013-05-25 23:50:00,
2013-05-25 17:55:00,85.7,51.9,29.57,SSW,203,2.0,-999.0,6,-99.99,,,0.00,0.0,cwc,2013-05-25 23:55:00,
2013-05-25 18:00:00,85.3,51.5,29.57,South,171,8.0,-999.0,6,-99.99,,,0.00,0.0,cwc,2013-05-26 00:00:00,
2013-05-25 18:05:00,85.3,51.5,29.57,SE,141,7.0,-999.0,6,-99.99,,,0.00,0.0,cwc,2013-05-26 00:05:00,
2013-05-25 18:10:00,85.7,51.9,29.57,WSW,237,6.0,-999.0,6,-99.99,,,0.00,0.0,cwc,2013-05-26 00:10:00,
2013-05-25 18:15:00,85.7,52.2,29.57,South,188,8.0,-999.0,7,-99.99,,,0.00,0.0,cwc,2013-05-26 00:15:00,
2013-05-25 18:20:00,85.7,52.2,29.53,WSW,248,13.0,-999.0,7,-99.99,,,0.00,0.0,cwc,2013-05-26 00:20:00,
2013-05-25 18:25:00,85.3,51.8,29.53,SW,232,9.0,-999.0,7,-99.99,,,0.00,0.0,cwc,2013-05-26 00:25:00,
2013-05-25 18:30:00,84.9,51.1,29.53,South,189,2.0,-999.0,6,-99.99,,,0.00,0.0,cwc,2013-05-26 00:30:00,
2013-05-25 18:35:00,84.7,51.2,29.54,South,178,9.0,-999.0,7,-99.99,,,0.00,0.0,cwc,2013-05-26 00:35:00,
2013-05-25 18:40:00,84.5,50.7,29.54,WSW,257,9.0,-999.0,6,-99.99,,,0.00,0.0,cwc,2013-05-26 00:40:00,
2013-05-25 18:45:00,84.9,51.4,29.54,SSW,208,0.0,-999.0,7,-99.99,,,0.00,0.0,cwc,2013-05-26 00:45:00,
2013-05-25 18:50:00,84.7,50.9,29.54,SSW,196,20.0,-999.0,6,-99.99,,,0.00,0.0,cwc,2013-05-26 00:50:00,
2013-05-25 18:55:00,84.9,51.4,29.54,West,277,1.0,-999.0,7,-99.99,,,0.00,0.0,cwc,2013-05-26 00:55:00,
2013-05-25 19:00:00,85.1,51.6,29.54,West,271,0.0,-999.0,7,-99.99,,,0.00,0.0,cwc,2013-05-26 01:00:00,
2013-05-25 19:05:00,84.7,50.9,29.53,WSW,240,7.0,-999.0,6,-99.99,,,0.00,0.0,cwc,2013-05-26 01:05:00,
2013-05-25 19:10:00,84.3,50.8,29.53,South,186,2.0,-999.0,7,-99.99,,,0.00,0.0,cwc,2013-05-26 01:10:00,
2013-05-25 19:15:00,84.0,50.2,29.53,SSW,193,7.0,-999.0,6,-99.99,,,0.00,0.0,cwc,2013-05-26 01:15:00,
2013-05-25 19:20:00,83.8,50.0,29.49,SSW,213,0.0,-999.0,6,-99.99,,,0.00,0.0,cwc,2013-05-26 01:20:00,
2013-05-25 19:25:00,83.2,49.4,29.49,SW,224,2.0,-999.0,6,-99.99,,,0.00,0.0,cwc,2013-05-26 01:25:00,
2013-05-25 19:30:00,83.2,49.4,29.49,SW,230,1.0,-999.0,6,-99.99,,,0.00,0.0,cwc,2013-05-26 01:30:00,
2013-05-25 19:35:00,82.8,49.0,29.48,SW,232,0.0,-999.0,6,-99.99,,,0.00,0.0,cwc,2013-05-26 01:35:00,
2013-05-25 19:40:00,82.8,49.0,29.48,SW,232,0.0,-999.0,6,-99.99,,,0.00,0.0,cwc,2013-05-26 01:40:00,
2013-05-25 19:45:00,82.4,48.6,29.48,SW,232,2.0,-999.0,6,-99.99,,,0.00,0.0,cwc,2013-05-26 01:45:00,
2013-05-25 19:50:00,82.2,48.7,29.50,SSE,157,2.0,-999.0,7,-99.99,,,0.00,0.0,cwc,2013-05-26 01:50:00,
2013-05-25 19:55:00,81.8,48.3,29.50,SSE,162,4.0,-999.0,7,-99.99,,,0.00,0.0,cwc,2013-05-26 01:55:00,
2013-05-25 20:00:00,81.4,47.9,29.50,South,185,10.0,-999.0,7,-99.99,,,0.00,0.0,cwc,2013-05-26 02:00:00,
2013-05-25 20:05:00,81.2,47.7,29.50,South,169,4.0,-999.0,7,-99.99,,,0.00,0.0,cwc,2013-05-26 02:05:00,
2013-05-25 20:10:00,80.9,47.4,29.50,SSW,196,0.0,-999.0,7,-99.99,,,0.00,0.0,cwc,2013-05-26 02:10:00,
2013-05-25 20:15:00,80.5,47.0,29.50,SSE,152,2.0,-999.0,7,-99.99,,,0.00,0.0,cwc,2013-05-26 02:15:00,
2013-05-25 20:20:00,80.1,47.0,29.46,SSE,152,0.0,-999.0,8,-99.99,,,0.00,0.0,cwc,2013-05-26 02:20:00,
2013-05-25 20:25:00,79.8,46.7,29.46,SSE,152,1.0,-999.0,8,-99.99,,,0.00,0.0,cwc,2013-05-26 02:25:00,
2013-05-25 20:30:00,79.0,45.9,29.46,SSE,154,0.0,-999.0,8,-99.99,,,0.00,0.0,cwc,2013-05-26 02:30:00,
2013-05-25 20:35:00,78.5,45.4,29.47,SSE,154,2.0,-999.0,8,-99.99,,,0.00,0.0,cwc,2013-05-26 02:35:00,
2013-05-25 20:40:00,78.1,45.0,29.47,SSE,155,1.0,-999.0,8,-99.99,,,0.00,0.0,cwc,2013-05-26 02:40:00,
2013-05-25 20:45:00,77.9,44.8,29.47,SSE,155,0.0,-999.0,8,-99.99,,,0.00,0.0,cwc,2013-05-26 02:45:00,
2013-05-25 20:50:00,77.7,44.6,29.49,SSE,155,0.0,-999.0,8,-99.99,,,0.00,0.0,cwc,2013-05-26 02:50:00,
2013-05-25 20:55:00,77.2,44.4,29.49,SSE,155,0.0,-999.0,9,-99.99,,,0.00,0.0,cwc,2013-05-26 02:55:00,
2013-05-25 21:00:00,76.7,43.9,29.49,SSE,155,0.0,-999.0,9,-99.99,,,0.00,0.0,cwc,2013-05-26 03:00:00,
2013-05-25 21:05:00,76.1,43.3,29.49,SSE,155,0.0,-999.0,9,-99.99,,,0.00,0.0,cwc,2013-05-26 03:05:00,
2013-05-25 21:10:00,74.7,42.3,29.49,SSE,155,4.0,-999.0,10,-99.99,,,0.00,0.0,cwc,2013-05-26 03:10:00,
2013-05-25 21:15:00,74.0,41.6,29.49,SSE,155,0.0,-999.0,10,-99.99,,,0.00,0.0,cwc,2013-05-26 03:15:00,
2013-05-25 21:20:00,73.2,40.8,29.49,SSE,155,0.0,-999.0,10,-99.99,,,0.00,0.0,cwc,2013-05-26 03:20:00,
2013-05-25 21:25:00,72.1,40.8,29.49,SSE,155,0.0,-999.0,13,-99.99,,,0.00,0.0,cwc,2013-05-26 03:25:00,
2013-05-25 21:30:00,70.3,39.0,29.49,East,99,1.0,-999.0,13,-99.99,,,0.00,0.0,cwc,2013-05-26 03:30:00,
2013-05-25 21:35:00,69.9,37.9,29.53,ESE,109,2.0,-999.0,11,-99.99,,,0.00,0.0,cwc,2013-05-26 03:35:00,
2013-05-25 21:40:00,69.8,37.8,29.53,ESE,109,2.0,-999.0,11,-99.99,,,0.00,0.0,cwc,2013-05-26 03:40:00,
2013-05-25 21:45:00,69.6,37.9,29.53,ESE,104,1.0,-999.0,12,-99.99,,,0.00,0.0,cwc,2013-05-26 03:45:00,
2013-05-25 21:50:00,69.4,37.7,29.55,ESE,104,0.0,-999.0,12,-99.99,,,0.00,0.0,cwc,2013-05-26 03:50:00,
2013-05-25 21:55:00,68.8,37.5,29.55,ESE,104,0.0,-999.0,13,-99.99,,,0.00,0.0,cwc,2013-05-26 03:55:00,
2013-05-25 22:00:00,68.1,36.4,29.55,ESE,104,0.0,-999.0,12,-99.99,,,0.00,0.0,cwc,2013-05-26 04:00:00,
2013-05-25 22:05:00,68.3,37.3,29.56,ESE,104,0.0,-999.0,14,-99.99,,,0.00,0.0,cwc,2013-05-26 04:05:00,
2013-05-25 22:10:00,67.6,36.3,29.56,ESE,104,0.0,-999.0,13,-99.99,,,0.00,0.0,cwc,2013-05-26 04:10:00,
2013-05-25 22:15:00,67.3,36.0,29.56,ESE,104,0.0,-999.0,13,-99.99,,,0.00,0.0,cwc,2013-05-26 04:15:00,
2013-05-25 22:20:00,66.8,35.8,29.56,ESE,104,0.0,-999.0,14,-99.99,,,0.00,0.0,cwc,2013-05-26 04:20:00,
2013-05-25 22:25:00,66.1,34.8,29.56,ESE,104,0.0,-999.0,13,-99.99,,,0.00,0.0,cwc,2013-05-26 04:25:00,
2013-05-25 22:30:00,65.5,34.2,29.56,ESE,104,0.0,-999.0,13,-99.99,,,0.00,0.0,cwc,2013-05-26 04:30:00,
2013-05-25 22:35:00,64.7,33.7,29.58,ESE,104,2.0,-999.0,14,-99.99,,,0.00,0.0,cwc,2013-05-26 04:35:00,
2013-05-25 22:40:00,64.5,33.2,29.58,ESE,104,0.0,-999.0,13,-99.99,,,0.00,0.0,cwc,2013-05-26 04:40:00,
2013-05-25 22:45:00,63.5,32.5,29.58,ESE,104,0.0,-999.0,14,-99.99,,,0.00,0.0,cwc,2013-05-26 04:45:00,
2013-05-25 22:50:00,62.9,31.9,29.60,ESE,104,0.0,-999.0,14,-99.99,,,0.00,0.0,cwc,2013-05-26 04:50:00,
2013-05-25 22:55:00,62.9,32.3,29.60,ESE,104,0.0,-999.0,15,-99.99,,,0.00,0.0,cwc,2013-05-26 04:55:00,
2013-05-25 23:00:00,62.3,32.1,29.60,ESE,106,0.0,-999.0,16,-99.99,,,0.00,0.0,cwc,2013-05-26 05:00:00,
2013-05-25 23:05:00,62.0,31.4,29.62,ESE,106,0.0,-999.0,15,-99.99,,,0.00,0.0,cwc,2013-05-26 05:05:00,
2013-05-25 23:10:00,61.5,30.5,29.62,ESE,106,0.0,-999.0,14,-99.99,,,0.00,0.0,cwc,2013-05-26 05:10:00,
2013-05-25 23:15:00,60.5,29.9,29.62,ESE,106,0.0,-999.0,15,-99.99,,,0.00,0.0,cwc,2013-05-26 05:15:00,
2013-05-25 23:20:00,60.9,30.3,29.61,ESE,106,0.0,-999.0,15,-99.99,,,0.00,0.0,cwc,2013-05-26 05:20:00,
2013-05-25 23:25:00,60.7,30.5,29.61,ESE,106,0.0,-999.0,16,-99.99,,,0.00,0.0,cwc,2013-05-26 05:25:00,
2013-05-25 23:30:00,60.5,29.9,29.61,ESE,106,0.0,-999.0,15,-99.99,,,0.00,0.0,cwc,2013-05-26 05:30:00,
2013-05-25 23:35:00,60.4,30.2,29.62,ESE,106,0.0,-999.0,16,-99.99,,,0.00,0.0,cwc,2013-05-26 05:35:00,
2013-05-25 23:40:00,60.2,30.0,29.62,ESE,106,0.0,-999.0,16,-99.99,,,0.00,0.0,cwc,2013-05-26 05:40:00,
2013-05-25 23:45:00,60.4,30.5,29.62,ESE,106,0.0,-999.0,17,-99.99,,,0.00,0.0,cwc,2013-05-26 05:45:00,
2013-05-25 23:50:00,59.9,30.0,29.62,ESE,106,0.0,-999.0,17,-99.99,,,0.00,0.0,cwc,2013-05-26 05:50:00,
2013-05-25 23:55:00,59.8,29.9,29.62,ESE,106,0.0,-999.0,17,-99.99,,,0.00,0.0,cwc,2013-05-26 05:55:00,